Time,TemperatureF,DewpointF,PressureIn,WindDirection,WindDirectionDegrees,WindSpeedMPH,WindSpeedGustMPH,Humidity,HourlyPrecipIn,Conditions,Clouds,dailyrainin,SolarRadiationWatts/m^2,SoftwareType,DateUTC
2013-05-11 00:22:00,60.0,59.0,-100.00,North,11,2.0,5.0,96,0.00,,,0.01,0.000000,,2013-05-11 10:22:00,
2013-05-11 00:33:00,60.0,59.0,-100.00,North,11,2.0,5.0,96,0.00,,,0.01,0.000000,,2013-05-11 10:33:00,
2013-05-11 00:42:00,60.0,59.0,-100.00,North,11,2.0,5.0,96,0.00,,,0.01,0.000000,,2013-05-11 10:42:00,
2013-05-11 00:52:00,60.0,59.0,-100.00,North,11,2.0,5.0,96,0.00,,,0.01,0.000000,,2013-05-11 10:52:00,
2013-05-11 01:21:00,59.0,58.0,-100.00,ENE,70,1.0,2.0,96,0.00,,,-99.99,0.000000,,2013-05-11 11:21:00,
2013-05-11 01:32:00,59.0,58.0,-100.00,ENE,70,1.0,2.0,96,0.00,,,-99.99,0.000000,,2013-05-11 11:32:00,
2013-05-11 01:42:00,59.0,58.0,-100.00,ENE,70,1.0,2.0,96,0.00,,,-99.99,0.000000,,2013-05-11 11:42:00,
2013-05-11 01:51:00,59.0,58.0,-100.00,ENE,70,1.0,2.0,96,0.00,,,-99.99,0.000000,,2013-05-11 11:51:00,
2013-05-11 02:21:00,60.0,58.0,-100.00,WSW,251,1.0,5.0,94,0.00,,,-99.99,0.000000,,2013-05-11 12:21:00,
2013-05-11 02:32:00,60.0,58.0,-100.00,WSW,251,1.0,5.0,94,0.00,,,-99.99,0.000000,,2013-05-11 12:32:00,
2013-05-11 02:42:00,60.0,58.0,-100.00,WSW,251,1.0,5.0,94,0.00,,,-99.99,0.000000,,2013-05-11 12:42:00,
2013-05-11 02:51:00,60.0,58.0,-100.00,WSW,251,1.0,5.0,94,0.00,,,-99.99,0.000000,,2013-05-11 12:51:00,
2013-05-11 03:21:00,60.0,58.0,-100.00,ENE,60,2.0,4.0,94,0.00,,,-99.99,0.000000,,2013-05-11 13:21:00,
2013-05-11 03:31:00,60.0,58.0,-100.00,ENE,60,2.0,4.0,94,0.00,,,-99.99,0.000000,,2013-05-11 13:31:00,
2013-05-11 03:41:00,60.0,58.0,-100.00,ENE,60,2.0,4.0,94,0.00,,,-99.99,0.000000,,2013-05-11 13:41:00,
2013-05-11 03:52:00,60.0,58.0,-100.00,ENE,60,2.0,4.0,94,0.00,,,-99.99,0.000000,,2013-05-11 13:52:00,
2013-05-11 04:21:00,58.0,56.0,-100.00,ENE,77,2.0,5.0,92,0.00,,,0.01,0.000000,,2013-05-11 14:21:00,
2013-05-11 04:32:00,58.0,56.0,-100.00,ENE,77,2.0,5.0,92,0.00,,,0.01,0.000000,,2013-05-11 14:32:00,
2013-05-11 04:41:00,58.0,56.0,-100.00,ENE,77,2.0,5.0,92,0.00,,,0.01,0.000000,,2013-05-11 14:41:00,
2013-05-11 04:51:00,58.0,56.0,-100.00,ENE,77,2.0,5.0,92,0.00,,,0.01,0.000000,,2013-05-11 14:51:00,
2013-05-11 05:21:00,54.0,53.0,-100.00,ESE,117,4.0,5.0,97,0.00,,,-99.99,0.000000,,2013-05-11 15:21:00,
2013-05-11 05:32:00,54.0,53.0,-100.00,ESE,117,4.0,5.0,97,0.00,,,-99.99,0.000000,,2013-05-11 15:32:00,
2013-05-11 05:42:00,54.0,53.0,-100.00,ESE,117,4.0,5.0,97,0.00,,,-99.99,0.000000,,2013-05-11 15:42:00,
2013-05-11 05:53:00,54.0,53.0,-100.00,ESE,117,4.0,5.0,97,0.00,,,-99.99,0.000000,,2013-05-11 15:53:00,
2013-05-11 06:22:00,50.0,49.0,-100.00,SE,145,3.0,5.0,97,0.00,,,0.01,0.000000,,2013-05-11 16:22:00,
2013-05-11 06:33:00,50.0,49.0,-100.00,SE,145,3.0,5.0,97,0.00,,,0.01,0.000000,,2013-05-11 16:33:00,
2013-05-11 06:42:00,50.0,49.0,-100.00,SE,145,3.0,5.0,97,0.00,,,0.01,0.000000,,2013-05-11 16:42:00,
2013-05-11 06:52:00,50.0,49.0,-100.00,SE,145,3.0,5.0,97,0.00,,,0.01,0.000000,,2013-05-11 16:52:00,
2013-05-11 07:22:00,58.0,56.0,-100.00,WSW,246,2.0,7.0,94,0.00,,,0.01,117.000000,,2013-05-11 17:22:00,
2013-05-11 07:31:00,58.0,56.0,-100.00,WSW,246,2.0,7.0,94,0.00,,,0.01,117.000000,,2013-05-11 17:31:00,
2013-05-11 07:41:00,58.0,56.0,-100.00,WSW,246,2.0,7.0,94,0.00,,,0.01,117.000000,,2013-05-11 17:41:00,
2013-05-11 07:52:00,58.0,56.0,-100.00,WSW,246,2.0,7.0,94,0.00,,,0.01,117.000000,,2013-05-11 17:52:00,
2013-05-11 08:21:00,68.0,55.0,-100.00,West,280,3.0,8.0,64,0.00,,,0.01,381.000000,,2013-05-11 18:21:00,
2013-05-11 08:32:00,68.0,55.0,-100.00,West,280,3.0,8.0,64,0.00,,,0.01,381.000000,,2013-05-11 18:32:00,
2013-05-11 08:41:00,68.0,55.0,-100.00,West,280,3.0,8.0,64,0.00,,,0.01,381.000000,,2013-05-11 18:41:00,
2013-05-11 08:51:00,68.0,55.0,-100.00,West,280,3.0,8.0,64,0.00,,,0.01,381.000000,,2013-05-11 18:51:00,
2013-05-11 09:21:00,72.0,52.0,-100.00,NW,314,6.0,11.0,50,0.00,,,0.01,636.000000,,2013-05-11 19:21:00,
2013-05-11 09:32:00,72.0,52.0,-100.00,NW,314,6.0,11.0,50,0.00,,,0.01,636.000000,,2013-05-11 19:32:00,
2013-05-11 09:41:00,72.0,52.0,-100.00,NW,314,6.0,11.0,50,0.00,,,0.01,636.000000,,2013-05-11 19:41:00,
2013-05-11 09:52:00,72.0,52.0,-100.00,NW,314,6.0,11.0,50,0.00,,,0.01,636.000000,,2013-05-11 19:52:00,
2013-05-11 10:22:00,70.0,57.0,-100.00,NNW,341,6.0,14.0,64,0.00,,,0.00,807.000000,,2013-05-11 20:22:00,
2013-05-11 10:32:00,70.0,57.0,-100.00,NNW,341,6.0,14.0,64,0.00,,,0.00,807.000000,,2013-05-11 20:32:00,
2013-05-11 10:42:00,70.0,57.0,-100.00,NNW,341,6.0,14.0,64,0.00,,,0.00,807.000000,,2013-05-11 20:42:00,
2013-05-11 10:52:00,70.0,57.0,-100.00,NNW,341,6.0,14.0,64,0.00,,,0.00,807.000000,,2013-05-11 20:52:00,
2013-05-11 11:21:00,72.0,57.0,-100.00,North,350,7.0,15.0,60,0.00,,,0.00,981.000000,,2013-05-11 21:21:00,
2013-05-11 11:33:00,72.0,57.0,-100.00,North,350,7.0,15.0,60,0.00,,,0.00,981.000000,,2013-05-11 21:33:00,
2013-05-11 11:43:00,72.0,57.0,-100.00,North,350,7.0,15.0,60,0.00,,,0.00,981.000000,,2013-05-11 21:43:00,
2013-05-11 11:52:00,72.0,57.0,-100.00,North,350,7.0,15.0,60,0.00,,,0.00,981.000000,,2013-05-11 21:52:00,
2013-05-11 12:23:00,72.0,55.0,-100.00,NNE,14,7.0,20.0,56,0.00,,,0.00,971.000000,,2013-05-11 22:23:00,
2013-05-11 12:33:00,72.0,55.0,-100.00,NNE,14,7.0,20.0,56,0.00,,,0.00,971.000000,,2013-05-11 22:33:00,
2013-05-11 12:42:00,72.0,55.0,-100.00,NNE,14,7.0,20.0,56,0.00,,,0.00,971.000000,,2013-05-11 22:42:00,
2013-05-11 12:52:00,72.0,55.0,-100.00,NNE,14,7.0,20.0,56,0.00,,,0.00,971.000000,,2013-05-11 22:52:00,
2013-05-11 13:22:00,71.0,57.0,-100.00,North,356,8.0,17.0,61,0.00,,,0.00,718.000000,,2013-05-11 23:22:00,
2013-05-11 13:32:00,71.0,57.0,-100.00,North,356,8.0,17.0,61,0.00,,,0.00,718.000000,,2013-05-11 23:32:00,
2013-05-11 13:42:00,71.0,57.0,-100.00,North,356,8.0,17.0,61,0.00,,,0.00,718.000000,,2013-05-11 23:42:00,
2013-05-11 13:52:00,71.0,57.0,-100.00,North,356,8.0,17.0,61,0.00,,,0.00,718.000000,,2013-05-11 23:52:00,
2013-05-11 14:21:00,72.0,57.0,-100.00,North,358,7.0,20.0,60,0.00,,,0.00,953.000000,,2013-05-12 00:21:00,
2013-05-11 14:32:00,72.0,57.0,-100.00,North,358,7.0,20.0,60,0.00,,,0.00,953.000000,,2013-05-12 00:32:00,
2013-05-11 14:42:00,72.0,57.0,-100.00,North,358,7.0,20.0,60,0.00,,,0.00,953.000000,,2013-05-12 00:42:00,
2013-05-11 14:52:00,72.0,57.0,-100.00,North,358,7.0,20.0,60,0.00,,,0.00,953.000000,,2013-05-12 00:52:00,
2013-05-11 15:21:00,69.0,59.0,-100.00,North,357,10.0,20.0,70,0.00,,,0.00,597.000000,,2013-05-12 01:21:00,
2013-05-11 15:32:00,69.0,59.0,-100.00,North,357,10.0,20.0,70,0.00,,,0.00,597.000000,,2013-05-12 01:32:00,
2013-05-11 15:41:00,69.0,59.0,-100.00,North,357,10.0,20.0,70,0.00,,,0.00,597.000000,,2013-05-12 01:41:00,
2013-05-11 15:52:00,69.0,59.0,-100.00,North,357,10.0,20.0,70,0.00,,,0.00,597.000000,,2013-05-12 01:52:00,
2013-05-11 16:22:00,65.0,58.0,-100.00,North,0,8.0,17.0,77,0.00,,,0.00,467.000000,,2013-05-12 02:22:00,
2013-05-11 16:31:00,65.0,58.0,-100.00,North,0,8.0,17.0,77,0.00,,,0.00,467.000000,,2013-05-12 02:31:00,
2013-05-11 16:42:00,65.0,58.0,-100.00,North,0,8.0,17.0,77,0.00,,,0.00,467.000000,,2013-05-12 02:42:00,
2013-05-11 16:52:00,65.0,58.0,-100.00,North,0,8.0,17.0,77,0.00,,,0.00,467.000000,,2013-05-12 02:52:00,
2013-05-11 17:22:00,65.0,58.0,-100.00,NNE,14,7.0,15.0,78,0.00,,,0.00,189.000000,,2013-05-12 03:22:00,
2013-05-11 17:32:00,65.0,58.0,-100.00,NNE,14,7.0,15.0,78,0.00,,,0.00,189.000000,,2013-05-12 03:32:00,
2013-05-11 17:42:00,65.0,58.0,-100.00,NNE,14,7.0,15.0,78,0.00,,,0.00,189.000000,,2013-05-12 03:42:00,
2013-05-11 17:53:00,65.0,58.0,-100.00,NNE,14,7.0,15.0,78,0.00,,,0.00,189.000000,,2013-05-12 03:53:00,
2013-05-11 18:22:00,63.0,57.0,-100.00,North,9,6.0,15.0,81,0.00,,,0.00,144.000000,,2013-05-12 04:22:00,
2013-05-11 18:33:00,63.0,57.0,-100.00,North,9,6.0,15.0,81,0.00,,,0.00,144.000000,,2013-05-12 04:33:00,
2013-05-11 18:43:00,63.0,57.0,-100.00,North,9,6.0,15.0,81,0.00,,,0.00,144.000000,,2013-05-12 04:43:00,
2013-05-11 18:52:00,63.0,57.0,-100.00,North,9,6.0,15.0,81,0.00,,,0.00,144.000000,,2013-05-12 04:52:00,
2013-05-11 19:22:00,62.0,59.0,-100.00,NNW,345,4.0,10.0,90,0.00,,,0.00,33.000000,,2013-05-12 05:22:00,
2013-05-11 19:31:00,62.0,59.0,-100.00,NNW,345,4.0,10.0,90,0.00,,,0.00,33.000000,,2013-05-12 05:31:00,
2013-05-11 19:42:00,62.0,59.0,-100.00,NNW,345,4.0,10.0,90,0.00,,,0.00,33.000000,,2013-05-12 05:42:00,
2013-05-11 19:51:00,62.0,59.0,-100.00,NNW,345,4.0,10.0,90,0.00,,,0.00,33.000000,,2013-05-12 05:51:00,
2013-05-11 20:21:00,59.0,57.0,-100.00,North,3,2.0,8.0,93,0.00,,,0.00,0.000000,,2013-05-12 06:21:00,
2013-05-11 20:32:00,59.0,57.0,-100.00,North,3,2.0,8.0,93,0.00,,,0.00,0.000000,,2013-05-12 06:32:00,
2013-05-11 20:42:00,59.0,57.0,-100.00,North,3,2.0,8.0,93,0.00,,,0.00,0.000000,,2013-05-12 06:42:00,
2013-05-11 20:51:00,59.0,57.0,-100.00,North,3,2.0,8.0,93,0.00,,,0.00,0.000000,,2013-05-12 06:51:00,
2013-05-11 21:21:00,55.0,53.0,-100.00,ESE,108,2.0,3.0,94,0.00,,,0.00,0.000000,,2013-05-12 07:21:00,
2013-05-11 21:32:00,55.0,53.0,-100.00,ESE,108,2.0,3.0,94,0.00,,,0.00,0.000000,,2013-05-12 07:32:00,
2013-05-11 21:42:00,55.0,53.0,-100.00,ESE,108,2.0,3.0,94,0.00,,,0.00,0.000000,,2013-05-12 07:42:00,
2013-05-11 21:52:00,55.0,53.0,-100.00,ESE,108,2.0,3.0,94,0.00,,,0.00,0.000000,,2013-05-12 07:52:00,
2013-05-11 22:21:00,55.0,53.0,-100.00,NE,46,1.0,4.0,94,0.00,,,0.00,0.000000,,2013-05-12 08:21:00,
2013-05-11 22:32:00,55.0,53.0,-100.00,NE,46,1.0,4.0,94,0.00,,,0.00,0.000000,,2013-05-12 08:32:00,
2013-05-11 22:41:00,55.0,53.0,-100.00,NE,46,1.0,4.0,94,0.00,,,0.00,0.000000,,2013-05-12 08:41:00,
2013-05-11 22:52:00,55.0,53.0,-100.00,NE,46,1.0,4.0,94,0.00,,,0.00,0.000000,,2013-05-12 08:52:00,
2013-05-11 23:21:00,59.0,58.0,-100.00,ESE,109,2.0,6.0,95,0.00,,,0.00,0.000000,,2013-05-12 09:21:00,
2013-05-11 23:33:00,59.0,58.0,-100.00,ESE,109,2.0,6.0,95,0.00,,,0.00,0.000000,,2013-05-12 09:33:00,
2013-05-11 23:42:00,59.0,58.0,-100.00,ESE,109,2.0,6.0,95,0.00,,,0.00,0.000000,,2013-05-12 09:42:00,
2013-05-11 23:52:00,59.0,58.0,-100.00,ESE,109,2.0,6.0,95,0.00,,,0.00,0.000000,,2013-05-12 09:52:00,